This is the latest recevied weather packets stored in our database for station/object HB9KBJ-4. If no packets are shown the sender has not sent any weather packets the latest 10 day(s).
| Time | Temp. | Humidity | Pressure | Rain* | Wind** | Luminosity | Snow |
|---|---|---|---|---|---|---|---|
| 1777106237 | 12.22° C | 48% | - | 0 mm | - | - | - |
| 1777105636 | 11.67° C | 48% | - | 0 mm | - | - | - |
| 1777105036 | 11.11° C | 48% | - | 0 mm | - | - | - |
| 1777104736 | 11.11° C | 49% | - | 0 mm | - | - | - |
| 1777104435 | 10.56° C | 50% | - | 0 mm | - | - | - |
| 1777103835 | 10° C | 50% | - | 0 mm | - | - | - |
| 1777103534 | 9.44° C | 52% | - | 0 mm | - | - | - |
| 1777103235 | 9.44° C | 54% | - | 0 mm | - | - | - |
| 1777102934 | 9.44° C | 57% | - | 0 mm | - | - | - |
| 1777101433 | 8.89° C | 63% | - | 0 mm | - | - | - |
| 1777101132 | 8.33° C | 63% | - | 0 mm | - | - | - |
| 1777100832 | 7.78° C | 64% | - | 0 mm | - | - | - |
| 1777100532 | 7.78° C | 65% | - | 0 mm | - | - | - |
| 1777100231 | 7.78° C | 65% | - | 0 mm | - | - | - |
| 1777099931 | 7.22° C | 66% | - | 0 mm | - | - | - |
| 1777099631 | 7.22° C | 67% | - | 0 mm | - | - | - |
| 1777099330 | 6.67° C | 68% | - | 0 mm | - | - | - |
| 1777099030 | 6.67° C | 68% | - | 0 mm | - | - | - |
| 1777098730 | 6.67° C | 67% | - | 0 mm | - | - | - |
| 1777098430 | 6.67° C | 66% | - | 0 mm | - | - | - |
| 1777098129 | 6.67° C | 66% | - | 0 mm | - | - | - |
| 1777097228 | 6.67° C | 68% | - | 0 mm | - | - | - |
| 1777096928 | 6.11° C | 68% | - | 0 mm | - | - | - |
| 1777096628 | 6.11° C | 68% | - | 0 mm | - | - | - |
| 1777096327 | 6.11° C | 68% | - | 0 mm | - | - | - |
* Rain since midnight (hover to see other rain measurements)
** Current wind speed in m/s (hover to see current wind gust speed)